USA 130 (DSP 18)        
1 24737U 97008A   19265.07677167  .00000028  00000-0  00000+0 0  9990
2 24737  13.4264  22.0896 0001156 298.1121  75.7357  1.00271925  6949
IUS R/B(1)              
1 24739U 97008C   19262.22357308 -.00002381  00000-0 -26841-2 0  9998
2 24739  27.7639 125.6544 7175185 274.6895  14.0575  2.36790993  3983
IUS R/B(2)              
1 24740U 97008D   19264.98124716  .00000034  00000-0  00000+0 0  9997
2 24740  13.5811  22.8023 0020570 125.3444 234.8804  0.99500146  1297